CW5217 Weather Reports


Display with metric or nautical units.
time (UTC)temp
F
wind
direction
speed
MPH
gust
MPH
rain 1hr
in
rain 24hr
in
rain mn
in
humidity
%
barometer
mb
20260505210252 78 194 1.0 6.0 0.00 0.00 0.00 37 1008.5
20260505205749 77 221 4.0 6.0 0.00 0.00 0.00 37 1008.6
20260505205247 77 59 0.0 3.0 0.00 0.00 0.00 40 1008.6
20260505204743 77 114 0.0 7.0 0.00 0.00 0.00 38 1008.3
20260505204241 78 84 2.0 3.0 0.00 0.00 0.00 37 1008.4
20260505203738 79 221 0.0 14.0 0.00 0.00 0.00 35 1008.5
20260505203235 79 330 6.0 9.0 0.00 0.00 0.00 34 1008.4
20260505202731 80 153 3.0 8.0 0.00 0.00 0.00 35 1008.6
20260505202227 79 105 3.0 4.0 0.00 0.00 0.00 34 1008.6
20260505201724 79 25 2.0 9.0 0.00 0.00 0.00 33 1008.5
20260505201222 79 205 4.0 8.0 0.00 0.00 0.00 34 1008.7
20260505200719 80 145 1.0 2.0 0.00 0.00 0.00 33 1008.7
20260505200216 80 99 1.0 6.0 0.00 0.00 0.00 33 1008.6
20260505195712 80 234 1.0 6.0 0.00 0.00 0.00 32 1008.8
20260505195209 81 180 3.0 7.0 0.00 0.00 0.00 32 1008.7
20260505194707 82 229 2.0 3.0 0.00 0.00 0.00 32 1008.6
20260505194203 81 167 2.0 7.0 0.00 0.00 0.00 31 1008.5
20260505193659 81 230 3.0 4.0 0.00 0.00 0.00 32 1008.6
20260505193156 81 141 2.0 4.0 0.00 0.00 0.00 30 1008.6
20260505192655 81 83 2.0 6.0 0.00 0.00 0.00 31 1008.8
20260505192152 81 290 4.0 7.0 0.00 0.00 0.00 31 1008.6
20260505191650 81 212 2.0 2.0 0.00 0.00 0.00 32 1008.6
20260505191148 81 140 1.0 8.0 0.00 0.00 0.00 33 1008.7
20260505190644 81 116 3.0 3.0 0.00 0.00 0.00 33 1008.9
20260505190144 82 309 3.0 6.0 0.00 0.00 0.00 32 1008.7
20260505185641 81 127 4.0 6.0 0.00 0.00 0.00 31 1009.1
20260505185137 81 83 1.0 3.0 0.00 0.00 0.00 32 1008.8
20260505184634 83 120 4.0 11.0 0.00 0.00 0.00 33 1009.0
20260505184131 82 134 2.0 4.0 0.00 0.00 0.00 32 1009.1
20260505183627 82 264 2.0 7.0 0.00 0.00 0.00 33 1009.1
20260505183125 79 96 2.0 8.0 0.00 0.00 0.00 37 1009.3
20260505182621 81 91 2.0 3.0 0.00 0.00 0.00 35 1009.4
20260505182118 81 14 3.0 8.0 0.00 0.00 0.00 34 1009.3
20260505181615 80 55 3.0 6.0 0.00 0.00 0.00 38 1009.3
20260505181112 79 271 8.0 11.0 0.00 0.00 0.00 37 1009.5
20260505180608 81 272 5.0 7.0 0.00 0.00 0.00 36 1009.5
20260505180106 82 107 0.0 2.0 0.00 0.00 0.00 36 1009.6
20260505175601 80 176 4.0 4.0 0.00 0.00 0.00 39 1009.8
20260505175058 79 134 2.0 6.0 0.00 0.00 0.00 39 1009.6
20260505174555 80 7 2.0 7.0 0.00 0.00 0.00 38 1009.7
20260505174050 81 176 0.0 10.0 0.00 0.00 0.00 38 1009.7
20260505173548 79 336 3.0 9.0 0.00 0.00 0.00 37 1009.9
20260505173044 80 91 1.0 3.0 0.00 0.00 0.00 38 1009.7
20260505172542 80 321 1.0 7.0 0.00 0.00 0.00 39 1009.8
20260505172038 78 153 2.0 7.0 0.00 0.00 0.00 39 1009.8
20260505171533 79 272 4.0 7.0 0.00 0.00 0.00 39 1009.9
20260505171030 79 348 5.0 8.0 0.00 0.00 0.00 40 1009.8
20260505170527 80 82 2.0 4.0 0.00 0.00 0.00 39 1010.0
20260505170024 79 90 2.0 4.0 0.00 0.00 0.00 42 1010.1
20260505165519 79 82 1.0 6.0 0.00 0.00 0.00 41 1010.1
20260505165015 78 263 6.0 8.0 0.00 0.00 0.00 40 1010.5
20260505164511 79 80 2.0 6.0 0.00 0.00 0.00 42 1010.2
20260505164009 79 126 1.0 4.0 0.00 0.00 0.00 45 1010.4
20260505163508 77 100 1.0 2.0 0.00 0.00 0.00 45 1010.4
20260505163004 78 286 3.0 8.0 0.00 0.00 0.00 43 1010.6
20260505162457 77 155 0.0 2.0 0.00 0.00 0.00 45 1010.5
20260505161953 78 264 6.0 7.0 0.00 0.00 0.00 44 1010.5
20260505161450 76 133 1.0 3.0 0.00 0.00 0.00 47 1010.7
20260505160947 77 353 2.0 2.0 0.00 0.00 0.00 45 1010.5
20260505160446 76 206 3.0 4.0 0.00 0.00 0.00 45 1010.6
20260505152922 74 88 1.0 2.0 0.00 0.00 0.00 51 1010.9
20260505152419 74 133 2.0 3.0 0.00 0.00 0.00 51 1010.9
20260505151913 73 151 1.0 1.0 0.00 0.00 0.00 54 1010.9
20260505151410 72 87 1.0 2.0 0.00 0.00 0.00 55 1011.1
20260505150907 71 138 2.0 2.0 0.00 0.00 0.00 56 1011.2
20260505150404 71 271 2.0 3.0 0.00 0.00 0.00 59 1011.1
20260505140328 65 159 1.0 2.0 0.00 0.00 0.00 67 1011.8
20260505130251 61 106 1.0 2.0 0.00 0.00 0.00 73 1011.6
20260505124742 60 89 0.0 0.0 0.00 0.00 0.00 74 1011.6
20260505124239 59 80 1.0 1.0 0.00 0.00 0.00 74 1011.7
20260505123734 59 99 1.0 1.0 0.00 0.00 0.00 75 1011.7
20260505123231 59 136 1.0 1.0 0.00 0.00 0.00 77 1011.7
20260505122728 59 94 0.0 1.0 0.00 0.00 0.00 75 1011.6
20260505122225 59 144 1.0 2.0 0.00 0.00 0.00 75 1011.5
20260505121722 59 158 1.0 3.0 0.00 0.00 0.00 76 1011.6
20260505121218 59 190 3.0 4.0 0.00 0.00 0.00 76 1011.5
20260505120715 58 97 0.0 0.0 0.00 0.00 0.00 78 1011.2
20260505120211 58 106 0.0 0.0 0.00 0.00 0.00 78 1011.3
20260505115710 58 98 0.0 0.0 0.00 0.00 0.00 79 1011.1
20260505115208 58 97 0.0 0.0 0.00 0.00 0.00 78 1011.1
20260505114705 57 101 0.0 0.0 0.00 0.00 0.00 78 1011.3
20260505114201 57 100 0.0 0.0 0.00 0.00 0.00 79 1011.3
20260505113658 57 102 0.0 0.0 0.00 0.00 0.00 79 1011.3
20260505113154 56 101 0.0 1.0 0.00 0.00 0.00 81 1011.3
20260505112651 56 113 0.0 1.0 0.00 0.00 0.00 81 1011.3
20260505112149 56 99 0.0 0.0 0.00 0.00 0.00 83 1011.5
20260505111648 56 100 0.0 0.0 0.00 0.00 0.00 83 1011.5
20260505111144 55 102 0.0 0.0 0.00 0.00 0.00 84 1011.5
20260505110640 55 96 0.0 0.0 0.00 0.00 0.00 83 1011.2
20260505110138 55 99 0.0 0.0 0.00 0.00 0.00 85 1011.3
20260505102114 54 106 0.0 0.0 0.00 0.00 0.00 88 1011.0
20260505101612 54 102 0.0 0.0 0.00 0.00 0.00 90 1010.8
20260505101108 55 99 0.0 0.0 0.00 0.00 0.00 88 1010.6
20260505100604 57 90 0.0 0.0 0.00 0.00 0.00 85 1010.6
20260505095558 58 118 1.0 1.0 0.00 0.00 0.00 76 1010.9
20260505095054 58 118 1.0 1.0 0.00 0.00 0.00 76 1010.7
20260505094551 58 113 0.0 0.0 0.00 0.00 0.00 77 1010.7
20260505094047 57 51 1.0 2.0 0.00 0.00 0.00 78 1010.8
20260505093543 58 119 1.0 2.0 0.00 0.00 0.00 76 1010.9
20260505093041 58 45 2.0 3.0 0.00 0.00 0.00 74 1011.3
20260505092538 58 249 5.0 6.0 0.00 0.00 0.00 73 1011.0
20260505092037 58 273 4.0 6.0 0.00 0.00 0.00 68 1010.9
20260505091533 58 182 2.0 2.0 0.00 0.00 0.00 69 1010.8
20260505091031 58 119 1.0 1.0 0.00 0.00 0.00 68 1010.8
20260505090529 57 354 2.0 2.0 0.00 0.00 0.00 71 1010.9
20260505090027 57 63 1.0 1.0 0.00 0.00 0.00 71 1010.8
20260505085524 58 237 3.0 4.0 0.00 0.00 0.00 67 1010.7
20260505085022 58 237 3.0 4.0 0.00 0.00 0.00 67 1010.6
20260505084520 58 105 2.0 2.0 0.00 0.00 0.00 68 1010.7
20260505084018 57 156 1.0 2.0 0.00 0.00 0.00 70 1010.8
20260505083515 57 79 1.0 1.0 0.00 0.00 0.00 70 1010.5
20260505083011 57 79 1.0 1.0 0.00 0.00 0.00 70 1010.4
20260505082507 57 180 1.0 3.0 0.00 0.00 0.00 71 1010.4
20260505082004 57 103 0.0 0.0 0.00 0.00 0.00 69 1010.1
20260505081501 57 116 1.0 1.0 0.00 0.00 0.00 68 1010.2
20260505080957 57 20 2.0 2.0 0.00 0.00 0.00 69 1010.3
20260505080454 57 20 2.0 4.0 0.00 0.00 0.00 69 1010.3
20260505075949 57 110 1.0 1.0 0.00 0.00 0.00 69 1010.3
20260505075446 57 110 1.0 1.0 0.00 0.00 0.00 69 1010.4
20260505074943 57 99 0.0 0.0 0.00 0.00 0.00 69 1010.3
20260505074441 58 182 2.0 2.0 0.00 0.00 0.00 66 1010.4
20260505073938 58 152 2.0 3.0 0.00 0.00 0.00 65 1010.6
20260505073436 58 175 2.0 2.0 0.00 0.00 0.00 66 1010.3
20260505072932 58 76 1.0 1.0 0.00 0.00 0.00 67 1010.2
20260505072429 58 189 3.0 4.0 0.00 0.00 0.00 65 1010.2
20260505071925 58 130 2.0 2.0 0.00 0.00 0.00 67 1010.5
20260505071421 58 123 1.0 1.0 0.00 0.00 0.00 63 1010.2
20260505070919 58 123 1.0 1.0 0.00 0.00 0.00 63 1010.3
20260505070415 58 125 2.0 3.0 0.00 0.00 0.00 63 1010.4
20260505065911 58 117 1.0 1.0 0.00 0.00 0.00 65 1010.4
20260505065408 58 95 0.0 0.0 0.00 0.00 0.00 64 1010.5
20260505064905 58 95 0.0 0.0 0.00 0.00 0.00 64 1010.4
20260505064402 58 112 0.0 1.0 0.00 0.00 0.00 63 1010.5
20260505063900 58 150 0.0 1.0 0.00 0.00 0.00 63 1010.5
20260505063356 58 110 0.0 0.0 0.00 0.00 0.00 64 1010.5
20260505062852 58 101 1.0 1.0 0.00 0.00 0.00 62 1010.4
20260505062349 58 101 1.0 1.0 0.00 0.00 0.00 62 1010.4
20260505061846 58 113 1.0 2.0 0.00 0.00 0.00 64 1010.6
20260505061344 58 106 1.0 2.0 0.00 0.00 0.00 61 1010.5
20260505060842 59 137 1.0 1.0 0.00 0.00 0.00 61 1010.4
20260505060338 58 158 2.0 2.0 0.00 0.00 0.00 61 1010.5
20260505055834 58 263 1.0 4.0 0.00 0.00 0.00 63 1010.6
20260505055330 58 106 1.0 1.0 0.00 0.00 0.00 61 1010.4
20260505054828 58 113 0.0 1.0 0.00 0.00 0.00 62 1010.3
20260505054325 58 94 0.0 1.0 0.00 0.00 0.00 60 1010.5
20260505053823 58 120 1.0 2.0 0.00 0.00 0.00 62 1010.6
20260505053320 58 102 1.0 1.0 0.00 0.00 0.00 62 1010.3
20260505052816 57 94 0.0 1.0 0.00 0.00 0.00 62 1010.5
20260505052313 57 101 0.0 1.0 0.00 0.00 0.00 62 1010.5
20260505051811 58 114 1.0 1.0 0.00 0.00 0.00 61 1010.6
20260505051308 57 98 0.0 1.0 0.00 0.00 0.00 61 1010.5
20260505050806 57 92 0.0 0.0 0.00 0.00 0.00 61 1010.3
20260505050305 57 93 1.0 1.0 0.00 0.00 0.00 60 1010.3
20260505041734 59 103 1.0 2.0 0.00 0.00 0.00 57 1010.6
20260505041231 59 99 0.0 1.0 0.00 0.00 0.00 57 1010.5
20260505040729 59 97 0.0 2.0 0.00 0.00 0.00 57 1010.6
20260505040226 59 103 0.0 1.0 0.00 0.00 0.00 57 1010.7
20260505035723 59 106 1.0 1.0 0.00 0.00 0.00 56 1010.5
20260505035219 59 107 1.0 2.0 0.00 0.00 0.00 55 1010.6
20260505034716 59 112 1.0 1.0 0.00 0.00 0.00 55 1010.6
20260505034213 60 111 0.0 0.0 0.00 0.00 0.00 55 1010.5
20260505033709 60 98 0.0 0.0 0.00 0.00 0.00 54 1010.6
20260505033208 60 99 0.0 0.0 0.00 0.00 0.00 56 1010.6
20260505032705 60 96 0.0 1.0 0.00 0.00 0.00 56 1010.6
20260505032201 60 103 0.0 0.0 0.00 0.00 0.00 55 1010.6
20260505031658 60 92 1.0 1.0 0.00 0.00 0.00 55 1010.6
20260505031154 60 104 1.0 1.0 0.00 0.00 0.00 54 1010.8
20260505030651 60 96 1.0 1.0 0.00 0.00 0.00 54 1010.8
20260505030146 60 114 2.0 2.0 0.00 0.00 0.00 54 1010.7
20260505025643 60 97 0.0 1.0 0.00 0.00 0.00 54 1010.7
20260505025142 60 103 1.0 1.0 0.00 0.00 0.00 54 1010.7
20260505024639 60 98 0.0 0.0 0.00 0.00 0.00 53 1010.8
20260505024136 60 108 1.0 1.0 0.00 0.00 0.00 53 1010.8
20260505023634 60 123 2.0 3.0 0.00 0.00 0.00 53 1010.8
20260505023131 60 94 0.0 0.0 0.00 0.00 0.00 53 1010.9
20260505022628 60 93 0.0 0.0 0.00 0.00 0.00 52 1010.8
20260505022125 60 97 0.0 0.0 0.00 0.00 0.00 53 1010.8
20260505021622 60 94 0.0 0.0 0.00 0.00 0.00 53 1010.8
20260505021118 60 99 0.0 0.0 0.00 0.00 0.00 54 1011.0
20260505020613 60 97 0.0 0.0 0.00 0.00 0.00 52 1010.9
20260505020110 60 100 0.0 0.0 0.00 0.00 0.00 53 1010.8
20260505015607 60 95 0.0 0.0 0.00 0.00 0.00 52 1010.7
20260505015104 60 98 0.0 0.0 0.00 0.00 0.00 52 1010.9
20260505014600 60 97 0.0 0.0 0.00 0.00 0.00 54 1010.8
20260505014058 60 94 0.0 0.0 0.00 0.00 0.00 53 1010.8
20260505013555 61 91 0.0 0.0 0.00 0.00 0.00 52 1010.8
20260505013052 61 91 0.0 0.0 0.00 0.00 0.00 52 1010.9
20260505012550 61 95 0.0 0.0 0.00 0.00 0.00 51 1010.6
20260505012047 61 99 0.0 0.0 0.00 0.00 0.00 53 1010.7
20260505011542 61 101 0.0 0.0 0.00 0.00 0.00 53 1010.6
20260505011040 61 94 0.0 0.0 0.00 0.00 0.00 52 1010.6
20260505010535 62 101 1.0 1.0 0.00 0.00 0.00 50 1010.4
20260505010032 61 99 0.0 0.0 0.00 0.00 0.00 51 1010.5
20260505005528 61 95 0.0 0.0 0.00 0.00 0.00 51 1010.5
20260505005026 61 96 0.0 0.0 0.00 0.00 0.00 51 1010.5
20260505004523 62 92 0.0 0.0 0.00 0.00 0.00 50 1010.3
20260505004019 62 87 0.0 0.0 0.00 0.00 0.00 50 1010.2
20260505003517 62 96 0.0 0.0 0.00 0.00 0.00 52 1010.3
20260505003014 62 110 0.0 1.0 0.00 0.00 0.00 51 1010.3
20260505002509 62 88 0.0 1.0 0.00 0.00 0.00 51 1010.2
20260505002008 62 94 0.0 0.0 0.00 0.00 0.00 51 1010.3
20260505001505 63 99 0.0 1.0 0.00 0.00 0.00 51 1010.1
20260505001002 63 98 0.0 0.0 0.00 0.00 0.00 50 1010.2
20260505000459 63 95 0.0 0.0 0.00 0.00 0.00 50 1010.1
20260504235956 63 87 1.0 1.0 0.00 0.00 0.00 49 1010.1
20260504235453 63 95 0.0 1.0 0.00 0.00 0.00 50 1010.0
20260504234950 64 95 0.0 0.0 0.00 0.00 0.00 50 1010.0
20260504234447 64 100 0.0 0.0 0.00 0.00 0.00 49 1009.8
20260504233943 64 93 2.0 2.0 0.00 0.00 0.00 47 1009.9
20260504233439 65 96 0.0 2.0 0.00 0.00 0.00 47 1009.6
20260504232936 65 101 0.0 1.0 0.00 0.00 0.00 47 1009.6
20260504232433 65 96 0.0 0.0 0.00 0.00 0.00 46 1009.7
20260504231931 66 93 0.0 0.0 0.00 0.00 0.00 47 1009.5
20260504231427 66 106 0.0 3.0 0.00 0.00 0.00 44 1009.4
20260504230923 66 106 3.0 4.0 0.00 0.00 0.00 44 1009.4
20260504230420 66 94 0.0 0.0 0.00 0.00 0.00 47 1009.4
20260504225919 66 98 1.0 1.0 0.00 0.00 0.00 45 1009.5
20260504225415 67 106 1.0 1.0 0.00 0.00 0.00 44 1009.2
20260504224913 67 107 0.0 1.0 0.00 0.00 0.00 43 1009.3
20260504224409 68 107 0.0 0.0 0.00 0.00 0.00 41 1009.3
20260504223907 68 98 0.0 1.0 0.00 0.00 0.00 41 1009.4
20260504223402 69 74 1.0 2.0 0.00 0.00 0.00 39 1009.3
20260504222858 69 95 1.0 1.0 0.00 0.00 0.00 39 1009.2
20260504222355 69 107 1.0 2.0 0.00 0.00 0.00 38 1009.3
20260504221854 69 113 1.0 1.0 0.00 0.00 0.00 39 1009.4
20260504221350 69 79 4.0 6.0 0.00 0.00 0.00 39 1009.4
20260504220847 69 98 1.0 2.0 0.00 0.00 0.00 39 1009.5
20260504220344 69 108 1.0 2.0 0.00 0.00 0.00 40 1009.4
20260504215841 69 98 1.0 1.0 0.00 0.00 0.00 39 1009.6
20260504215337 69 98 2.0 2.0 0.00 0.00 0.00 40 1009.3
20260504214834 69 115 2.0 3.0 0.00 0.00 0.00 39 1009.7
20260504214331 69 91 0.0 1.0 0.00 0.00 0.00 37 1009.6
20260504213827 70 9 3.0 3.0 0.00 0.00 0.00 37 1009.5
20260504213323 70 268 2.0 4.0 0.00 0.00 0.00 37 1009.6
20260504212821 70 102 0.0 0.0 0.00 0.00 0.00 36 1009.5
20260504212317 70 96 1.0 2.0 0.00 0.00 0.00 37 1009.7
20260504211815 71 71 0.0 0.0 0.00 0.00 0.00 38 1009.8
20260504211310 70 114 1.0 2.0 0.00 0.00 0.00 36 1009.8
20260504210808 71 12 1.0 2.0 0.00 0.00 0.00 37 1009.7